RH
10 10 10 11 11 12 13 15 17 18 19 19 19 19 18 17 17 16 15 14 15 16 17 16 15 15 13 11 9 7 6 5 5 4 3 4 4 4 4 6 6 6 6 7 9 12 16 19 20 19 19 20 19 25 41 55 58 54 54 51 45 42 43 44 42 40 42 50 54 50 48 48 44 42 49 56 54 54 53 52 55 53 53 53 52 50 44 38
14 12 10 10 10 10 11 12 13 14 16 18 19 20 20 19 19 18 17 15 15 16 18 18 17 15 14 13 11 10 8 7 5 4 4 4 4 4 4 5 6 6 5 6 9 12 14 17 20 18 19 19 20 32 43 52 57 50 49 47 41 41 41 41 40 37 38 45 48 42 44 43 37 36 41 46 46 46 46 48 51 52 54 53 53 53 46 40
21 18 15 12 10 9 10 10 11 11 12 14 16 17 19 19 19 19 18 17 16 16 17 19 19 17 15 14 12 11 10 9 8 6 5 5 3 3 4 5 5 5 5 6 8 12 16 17 18 17 19 17 21 37 43 51 58 50 50 45 37 40 39 40 38 34 37 41 41 39 42 44 38 36 39 41 43 41 37 38 42 45 51 52 52 53 50 46
25 23 21 18 14 11 10 9 9 10 10 11 12 14 15 17 18 19 19 18 17 17 16 18 20 19 17 15 13 12 10 10 10 10 10 10 6 3 4 4 4 5 4 6 11 16 19 17 14 14 16 15 20 34 37 45 54 49 47 39 35 39 36 39 38 33 39 39 38 40 43 43 38 37 40 39 36 35 33 32 34 38 43 46 49 51 52 51
26 25 24 23 20 17 14 11 9 9 9 9 10 10 12 14 16 17 18 19 18 17 17 18 19 19 18 17 16 14 13 11 11 15 19 18 12 5 5 5 4 4 3 7 15 20 19 15 12 12 13 13 18 26 26 34 47 46 41 37 38 41 38 39 38 36 40 38 35 39 41 39 36 37 39 34 27 29 34 34 35 37 35 37 45 47 50 53
27 26 25 24 23 22 20 17 13 10 9 8 9 9 10 10 12 14 15 17 18 18 18 18 19 19 18 18 16 16 15 12 12 17 20 19 16 10 7 6 4 4 4 9 17 19 16 13 12 12 14 14 16 21 22 29 42 42 38 37 38 41 41 39 38 38 43 43 38 36 38 36 34 35 35 31 27 26 32 36 38 39 33 33 42 45 46 52
27 27 26 25 24 24 23 22 20 16 13 9 8 8 9 9 9 11 12 14 16 17 18 18 19 19 19 18 16 17 14 12 14 16 14 13 14 13 9 4 4 5 5 8 14 15 12 12 12 13 14 15 17 19 23 31 40 41 38 38 38 41 41 39 38 38 42 47 43 37 36 35 33 34 34 31 27 25 29 36 39 41 37 32 38 45 46 51
27 27 27 27 26 25 24 23 22 21 19 15 11 9 8 8 8 9 9 10 12 15 16 17 18 19 19 18 16 15 13 13 15 13 10 8 9 14 12 7 5 6 8 9 11 11 11 12 12 14 14 16 19 20 24 34 40 40 38 37 38 39 38 38 39 38 39 43 44 41 35 33 33 33 33 30 27 26 27 33 38 40 41 35 35 43 47 51
28 27 26 26 26 26 25 25 24 23 22 20 17 13 9 8 8 8 8 9 10 11 13 15 16 18 18 17 16 13 12 14 14 12 13 10 9 14 16 14 9 6 10 12 13 12 11 11 11 14 14 16 20 22 27 37 39 38 37 36 38 37 35 35 36 37 38 39 42 44 40 36 34 33 33 31 27 27 29 32 35 38 41 37 31 37 44 48
28 27 26 26 25 25 26 25 25 24 23 22 21 19 15 10 8 7 7 8 9 9 11 13 14 16 17 17 15 11 11 16 16 16 19 17 16 17 17 19 16 10 8 12 15 13 11 11 11 12 15 19 22 24 30 35 38 40 41 41 40 38 35 33 32 33 34 37 40 42 43 38 34 33 32 30 28 28 30 31 33 36 40 36 28 31 39 45
29 28 27 26 25 25 25 25 25 25 24 24 23 22 20 16 12 8 7 7 8 8 9 10 11 13 15 15 12 9 13 17 20 23 25 23 22 21 19 19 18 15 11 9 12 13 13 11 11 14 17 22 24 26 29 31 37 42 46 47 44 41 37 33 31 29 27 32 38 39 42 39 32 32 31 30 29 29 31 31 30 33 37 36 31 30 34 41
29 29 28 28 26 25 24 24 24 24 24 24 25 24 23 20 17 12 9 7 7 7 8 8 9 10 12 11 7 11 16 16 19 25 28 25 22 22 23 21 18 16 14 10 8 10 13 11 12 16 19 22 25 30 32 36 46 50 48 45 41 39 35 32 30 28 24 26 34 37 40 37 32 33 33 30 29 30 31 31 31 31 35 37 33 29 30 36
28 28 29 28 28 27 26 24 24 23 23 24 25 24 24 22 19 17 13 10 7 7 7 7 8 8 9 7 6 14 18 15 15 19 27 27 23 21 21 20 18 16 14 12 9 8 10 11 13 16 24 28 25 32 38 40 48 50 46 37 30 29 30 31 28 26 25 23 28 36 39 36 33 35 34 31 30 31 32 32 33 31 33 37 31 26 29 32
27 27 27 28 28 28 27 26 25 24 24 24 24 24 23 22 21 20 18 14 11 8 7 6 7 7 6 6 7 13 16 17 14 13 20 22 20 22 18 15 15 14 11 9 9 9 8 10 11 15 27 31 28 35 41 40 39 39 36 31 25 25 27 31 28 25 24 21 23 31 38 36 35 37 35 33 32 32 32 32 33 32 33 35 27 21 26 29
27 27 27 27 27 27 27 26 25 25 26 25 25 24 22 22 22 21 20 18 15 11 9 7 6 7 5 5 7 11 14 14 12 11 16 16 16 20 17 12 12 12 12 9 8 9 8 8 9 13 22 31 38 45 45 41 38 34 31 28 26 25 27 30 28 25 21 19 21 28 37 36 36 37 34 34 34 32 32 32 33 33 33 33 26 19 22 28
27 26 26 26 26 26 26 26 26 26 28 27 25 24 22 22 22 22 21 20 18 15 12 9 7 6 6 5 6 8 11 11 11 12 14 12 12 16 16 14 14 15 16 13 9 10 12 10 9 11 19 36 51 54 48 42 38 35 30 28 27 25 26 27 24 22 18 18 23 29 36 36 35 37 35 35 34 31 31 31 33 34 33 34 30 24 20 23
28 27 27 27 26 26 26 25 25 27 30 28 26 25 23 23 23 22 21 20 19 17 16 13 10 8 6 6 6 8 9 9 11 12 12 10 9 14 17 17 16 16 19 20 17 18 22 18 12 10 17 35 53 56 50 40 34 33 29 27 28 25 24 24 21 19 18 20 25 31 36 36 34 35 34 35 32 29 30 31 33 33 33 33 34 32 26 21
30 29 28 28 28 28 27 26 25 27 30 29 26 26 25 24 24 23 22 21 19 18 17 15 13 10 8 8 8 9 10 9 9 10 10 9 8 13 17 18 17 16 22 27 25 23 28 27 20 16 19 32 50 53 45 35 31 31 28 25 26 25 23 23 21 19 18 21 26 33 36 36 35 34 33 33 31 29 31 32 33 33 32 32 35 37 34 24
30 29 29 29 29 29 29 28 27 28 31 31 28 27 26 26 25 24 23 21 19 19 18 17 15 12 10 11 10 10 9 9 10 10 9 8 8 11 15 17 18 19 23 26 26 23 26 31 28 26 29 38 50 48 39 33 30 28 26 24 23 23 23 23 21 18 18 22 28 31 33 33 35 35 33 31 31 31 33 34 35 35 32 32 35 37 37 29
25 26 27 28 29 29 29 29 29 30 32 32 30 29 28 28 28 26 23 22 21 20 19 18 17 14 12 11 11 11 10 9 9 11 11 9 8 10 14 18 20 22 23 23 23 21 23 29 28 27 33 44 50 45 36 33 31 27 24 22 21 20 21 21 20 18 17 22 28 29 28 31 33 34 33 31 31 33 34 36 36 35 33 32 36 38 37 30
14 17 20 22 25 27 28 28 29 30 31 32 31 31 31 31 30 28 24 22 22 21 19 18 17 15 14 13 11 11 13 12 11 11 12 10 9 10 13 18 21 23 22 20 22 22 23 24 23 24 33 42 45 40 35 32 30 27 24 22 20 20 21 20 19 18 17 20 27 31 32 32 32 33 32 31 32 32 32 33 34 34 34 34 36 38 38 33
6 7 10 13 16 20 24 26 27 29 30 31 31 32 33 32 32 30 26 21 20 22 21 19 18 15 13 14 12 10 12 13 14 14 14 11 10 11 12 16 20 20 19 20 24 28 27 23 18 20 29 37 39 36 33 30 28 26 23 21 20 20 21 20 19 17 17 18 21 30 37 37 34 32 32 31 30 29 28 28 29 31 33 34 36 38 39 37
4 4 4 6 8 11 15 20 24 26 29 30 31 33 34 35 34 34 31 24 17 18 21 20 19 16 14 15 14 12 10 9 14 17 15 13 10 10 12 14 18 21 21 21 23 27 28 22 16 16 23 31 34 32 30 28 27 25 23 21 20 21 20 19 18 18 18 18 18 23 31 36 37 36 34 31 29 29 29 29 30 31 32 33 34 37 38 36
3 3 4 4 4 5 7 11 17 22 26 28 30 34 35 36 37 36 33 29 20 16 18 19 18 17 15 15 14 14 10 7 12 16 16 15 12 11 13 13 17 21 22 21 20 23 25 20 15 14 18 24 28 29 28 27 26 24 23 21 21 21 21 20 19 18 18 19 18 18 23 32 36 38 37 33 32 33 33 32 33 34 34 35 35 38 38 35
3 4 3 3 4 4 4 6 10 17 23 27 30 33 37 37 38 37 33 30 24 17 17 17 17 16 16 16 15 14 12 8 8 13 17 17 14 14 14 14 16 16 17 20 23 23 20 19 18 15 15 19 23 24 24 26 26 24 22 21 21 20 20 20 20 19 19 18 18 19 29 35 35 37 36 33 35 36 35 35 34 34 35 36 37 38 40 38
3 3 3 3 4 3 4 4 6 12 19 25 29 32 37 37 36 37 33 30 26 19 17 17 16 16 16 15 14 14 14 10 7 12 19 20 18 17 17 18 17 14 12 17 25 25 17 17 19 16 15 19 24 24 22 25 27 24 19 19 21 21 19 20 20 19 19 19 17 19 29 36 35 37 36 34 35 34 34 35 33 34 35 35 36 37 40 40
2 2 3 3 3 3 3 3 4 7 11 19 27 32 37 38 38 36 32 32 30 20 18 19 16 15 15 15 15 15 14 11 8 9 15 19 20 20 20 21 19 17 15 17 24 24 17 16 18 16 15 18 25 27 22 24 29 22 16 17 20 20 19 20 19 19 19 19 19 18 21 27 31 33 33 34 35 34 34 34 33 35 35 34 35 36 38 40
1 2 2 2 3 3 3 3 4 3 5 13 22 32 39 40 40 36 31 35 32 20 17 19 17 15 15 14 15 15 14 11 9 7 10 16 19 20 21 21 19 17 17 20 22 20 17 18 17 16 17 17 20 24 22 24 26 19 14 17 18 18 20 19 18 18 17 18 20 19 19 25 28 25 27 34 36 36 35 33 32 33 33 32 33 35 37 38
2 2 2 2 3 3 4 4 4 3 5 8 17 30 40 42 39 34 35 36 27 20 18 17 17 16 15 14 13 15 15 12 9 7 9 16 19 20 21 21 21 20 19 21 20 18 18 17 16 17 19 17 15 18 20 23 23 19 18 18 16 18 19 18 18 15 16 20 21 18 18 25 26 19 24 37 39 36 34 31 30 29 28 28 30 32 34 37
2 2 2 2 2 3 4 4 4 4 4 6 13 26 39 44 36 32 40 38 23 19 20 17 17 16 15 14 13 14 15 13 10 8 8 13 17 20 22 22 23 23 22 21 20 19 20 19 18 18 19 16 13 15 17 17 17 17 20 20 17 18 18 17 16 14 18 24 21 17 16 21 24 19 19 29 33 33 31 29 29 29 28 28 28 29 30 33
2 2 2 2 3 3 3 4 5 4 4 4 8 22 39 42 33 33 40 33 22 21 20 18 19 17 15 15 13 13 14 13 11 9 10 14 21 25 25 25 25 25 24 23 22 21 20 20 20 19 18 16 15 16 16 15 14 14 15 16 16 16 16 16 14 15 22 24 19 17 16 19 23 20 16 17 20 26 29 27 26 26 26 26 26 27 27 28
2 3 3 3 4 3 3 4 5 4 5 4 6 21 35 35 31 35 35 26 22 24 22 20 19 17 16 15 14 13 13 13 11 10 10 13 21 24 23 24 25 23 24 24 23 22 21 20 19 18 18 18 17 17 17 17 17 17 14 14 17 17 17 19 18 19 23 21 18 16 16 18 20 18 15 15 15 19 25 27 25 23 23 23 22 23 24 26
3 3 3 3 4 5 4 4 6 6 5 4 9 22 32 34 32 32 30 25 24 24 22 22 21 18 18 16 15 14 13 13 11 11 11 11 18 21 19 23 23 21 22 24 23 22 21 20 18 18 17 17 19 18 16 17 18 19 17 16 17 18 21 25 24 23 23 19 17 16 17 19 18 15 14 15 14 14 18 23 25 23 21 20 20 20 22 24
3 3 3 3 4 6 5 5 6 8 7 5 13 27 34 36 35 31 31 29 26 25 24 23 23 21 21 20 18 16 14 13 11 11 12 14 20 24 23 25 25 23 22 23 23 21 22 22 18 17 17 16 18 18 16 16 16 17 18 17 17 16 20 23 23 24 23 18 16 17 19 20 17 15 15 14 14 13 13 16 18 18 16 17 20 21 22 23
3 3 3 3 5 6 8 9 9 11 12 7 15 33 37 34 33 32 33 32 29 29 27 26 25 24 22 22 20 19 17 15 12 11 12 14 19 23 23 24 25 25 24 23 22 21 22 21 15 13 14 14 16 17 16 16 15 15 16 17 17 15 15 17 18 19 18 18 18 18 19 19 16 15 15 13 14 13 13 13 13 14 13 16 22 25 24 24
3 4 3 3 6 8 12 17 18 17 16 12 19 34 34 29 31 32 33 34 32 31 29 29 28 26 25 23 22 20 18 16 14 12 12 13 15 18 20 21 21 23 24 23 22 21 20 19 15 14 14 12 14 16 16 17 16 15 15 16 16 15 14 14 14 14 15 20 21 17 16 16 15 15 14 13 14 13 13 13 13 14 13 16 21 23 23 24
4 4 4 3 5 10 18 29 34 30 24 22 26 30 28 28 29 30 33 33 32 31 31 30 29 27 26 24 22 21 20 19 17 15 13 12 14 16 17 20 20 19 21 22 22 21 19 16 14 15 14 10 11 15 16 16 16 15 15 14 14 14 14 13 13 13 16 21 21 17 15 15 16 16 14 13 14 13 13 13 13 13 14 18 20 20 22 23
6 5 5 7 10 17 28 38 45 47 42 35 31 29 29 29 25 25 31 33 32 31 31 30 30 28 27 27 24 22 23 22 20 20 17 13 15 16 16 18 20 21 20 20 21 21 19 16 14 13 12 10 10 14 16 16 16 15 14 13 13 13 13 13 14 15 17 20 21 18 16 15 14 16 15 13 13 13 13 13 13 12 13 16 17 18 20 22
10 8 8 13 18 27 46 58 56 58 60 51 39 33 32 30 24 22 28 33 34 34 33 32 33 32 30 30 28 26 27 27 26 27 22 17 18 19 20 21 19 20 21 20 21 20 18 16 14 12 11 10 11 13 15 15 16 15 15 14 13 12 12 12 13 14 15 20 22 19 18 16 13 13 14 13 13 13 13 13 13 12 12 13 14 16 18 20
15 12 11 18 19 23 50 78 76 69 72 65 49 40 38 36 32 26 26 32 37 38 39 39 39 38 35 32 32 33 33 31 32 33 28 24 22 21 24 26 21 18 19 19 20 19 18 16 14 13 12 12 13 13 14 14 14 15 15 14 13 11 11 11 12 11 11 19 26 23 19 15 12 12 13 12 13 13 12 12 12 13 13 13 13 14 15 16
21 17 19 27 24 18 35 69 83 79 80 76 61 48 43 44 47 43 36 39 44 45 46 44 42 45 45 42 40 41 42 38 37 39 36 30 26 25 29 32 28 22 18 18 18 18 18 17 15 14 13 13 13 12 12 12 13 14 14 14 13 12 10 11 14 12 9 13 21 22 17 12 10 11 11 12 12 12 12 12 12 12 13 13 13 13 13 13
24 20 26 34 32 21 22 49 80 92 91 90 82 72 67 71 78 74 62 59 60 58 56 54 51 51 52 51 50 49 49 46 43 43 41 36 34 34 35 36 34 30 25 24 24 21 19 19 18 15 14 14 14 13 12 12 12 13 14 14 14 12 10 11 14 13 11 11 12 14 15 12 10 10 11 11 11 11 12 12 11 12 12 12 12 12 12 12
27 22 29 42 45 34 26 42 76 96 99 98 98 95 93 94 95 89 79 73 70 66 63 59 58 57 56 56 57 56 54 53 51 50 47 41 39 39 38 37 36 32 28 30 31 26 21 22 23 19 15 13 13 13 13 12 13 14 14 14 14 13 11 11 11 10 10 12 12 14 16 14 11 10 10 11 11 10 11 11 11 12 11 12 13 12 13 13
28 23 30 49 56 46 44 62 84 96 100 99 99 100 98 95 88 81 77 74 70 67 64 62 63 62 61 61 62 61 58 57 57 57 55 50 46 45 43 42 40 35 33 36 37 33 28 28 28 25 21 18 16 16 15 14 14 15 15 14 14 14 12 11 10 10 10 10 11 14 16 13 11 11 10 10 10 10 10 10 11 12 12 12 13 13 13 14
31 27 29 48 60 52 59 87 99 98 100 99 97 97 97 95 87 78 74 71 69 69 66 65 66 64 63 63 63 62 61 59 59 59 57 54 51 49 46 45 43 40 39 42 42 39 37 36 32 31 30 27 24 23 20 16 15 15 15 15 14 14 13 12 10 11 14 12 9 12 13 11 11 10 9 10 10 10 10 9 9 10 11 12 12 12 11 13
41 39 33 44 61 60 69 94 101 96 97 95 92 92 92 91 88 83 78 72 69 68 63 62 63 62 62 62 60 60 60 60 62 60 57 56 54 51 48 46 45 42 41 42 41 39 39 37 34 37 41 39 36 30 22 19 18 15 14 15 15 14 13 12 11 11 13 14 11 9 10 10 10 9 9 10 10 9 9 8 8 7 8 10 11 12 11 12
50 54 52 58 70 69 72 87 96 95 93 88 86 87 88 89 88 84 79 75 71 66 60 60 63 63 64 66 66 65 63 62 61 60 59 58 55 52 50 47 46 44 41 41 41 39 39 38 36 41 47 47 46 38 28 25 23 18 15 14 14 14 13 12 13 11 11 13 14 11 9 9 10 9 9 9 9 8 8 8 8 7 7 8 9 11 10 10
56 61 69 80 87 80 71 75 84 87 85 83 83 82 82 87 90 86 81 77 73 67 60 60 63 64 66 71 73 69 65 62 60 59 59 56 53 52 50 48 47 45 42 42 41 39 41 42 39 41 43 41 41 38 32 29 25 19 17 14 12 14 14 13 13 12 11 12 13 12 10 10 10 9 9 8 8 8 7 7 8 8 8 8 8 9 9 8
63 63 71 85 91 84 76 76 79 80 81 85 85 82 84 87 86 86 82 74 70 69 66 61 61 64 65 69 72 67 62 61 60 60 58 54 52 49 46 47 48 46 44 42 40 40 42 43 42 42 42 37 35 36 33 30 27 21 18 16 13 12 12 13 13 12 12 12 11 11 10 10 9 9 8 8 7 7 7 8 9 9 9 9 10 10 10 9
69 70 76 85 84 80 82 82 80 78 80 84 85 86 93 93 85 80 77 73 71 70 68 64 63 62 62 66 71 67 62 61 58 57 57 55 52 49 48 51 50 47 45 41 40 40 41 43 42 43 46 40 33 33 33 31 30 26 20 16 15 13 11 12 13 13 12 12 12 11 11 10 10 9 8 8 7 6 7 8 8 10 11 11 11 11 11 11
73 77 87 94 87 83 90 88 80 77 77 82 88 91 92 91 89 84 76 75 78 75 70 67 64 60 58 59 62 65 66 62 54 52 56 56 53 48 46 47 46 44 42 41 41 40 40 43 41 44 53 45 32 34 34 30 29 27 22 18 15 13 12 10 11 12 12 12 12 12 12 11 11 11 10 8 8 7 7 6 7 9 11 11 11 11 12 12
80 81 90 99 91 84 88 86 79 77 78 81 88 88 83 83 90 89 79 75 80 80 77 73 68 64 58 52 54 62 65 60 51 49 50 51 52 49 43 40 40 40 38 38 39 37 39 43 42 48 58 48 34 37 37 34 34 29 21 19 17 14 13 11 10 12 12 12 12 12 12 12 11 12 11 10 9 8 7 6 6 7 8 9 10 12 13 14
Wind_Speed
19 20 21 22 23 24 24 25 25 26 26 26 25 25 24 24 23 22 21 20 19 18 16 15 15 14 14 13 12 13 13 15 16 18 14 8 12 19 19 20 22 24 25 26 27 26 24 22 18 16 14 12 9 6 7 10 8 6 5 6 3 1 3 5 5 6 8 16 18 16 13 11 9 7 8 10 9 7 6 6 5 9 12 11 11 11 13 15
18 19 19 20 21 22 22 23 24 25 25 26 26 25 25 25 24 24 23 22 21 20 18 17 16 15 15 14 12 12 13 15 15 16 14 10 14 17 17 20 23 24 25 27 27 25 24 21 19 18 16 13 9 7 9 10 9 6 6 7 2 1 2 4 6 6 7 16 18 14 12 10 7 6 5 8 7 6 7 7 8 9 12 13 13 12 14 14
19 19 19 19 20 20 21 21 22 23 23 24 25 26 26 25 25 24 24 24 23 21 20 19 18 16 15 14 13 13 13 14 14 14 13 11 13 15 16 18 21 23 24 25 26 25 22 18 18 18 17 14 11 11 11 12 10 7 8 7 2 1 3 5 7 9 7 13 18 14 12 12 9 7 5 5 5 5 8 6 4 7 10 12 13 14 14 14
20 20 20 19 20 20 20 20 21 21 22 23 23 25 25 26 26 25 25 24 24 23 21 20 20 18 16 15 14 14 14 14 13 11 10 9 10 14 16 17 19 20 22 25 27 26 23 19 19 19 18 16 14 14 15 15 13 10 9 6 4 4 7 7 7 10 5 9 18 16 15 15 11 8 6 4 4 3 5 4 4 1 6 10 12 14 15 15
21 21 21 20 20 20 20 20 20 20 21 21 22 23 24 25 25 26 26 25 25 24 23 21 21 20 18 16 16 15 15 12 9 6 4 5 8 12 15 16 17 18 21 28 30 29 27 24 22 21 21 19 17 18 17 15 15 14 11 9 7 6 9 11 12 11 4 6 14 19 18 14 11 9 9 5 5 5 5 4 5 5 2 4 7 12 14 15
21 21 21 21 21 20 20 20 20 20 20 20 21 21 22 23 24 26 26 26 25 25 24 22 22 22 20 18 17 16 16 10 5 6 5 5 6 8 13 15 15 17 23 30 32 31 30 27 27 26 24 20 19 19 15 14 17 16 15 12 8 5 8 14 15 12 3 7 11 17 19 15 13 12 10 6 5 6 6 6 3 3 3 1 3 9 12 14
21 21 21 21 21 21 20 20 19 19 19 19 20 20 21 22 23 24 25 26 26 25 25 23 23 23 22 20 18 18 17 9 5 10 10 9 8 6 9 14 16 18 23 30 32 33 32 30 30 27 24 22 21 19 14 15 19 18 17 14 9 4 7 12 14 13 6 10 11 13 20 20 16 13 11 8 6 6 6 6 6 3 2 1 2 7 10 13
21 21 21 21 21 21 21 21 20 20 19 19 19 19 20 21 22 23 24 25 25 26 25 25 25 23 23 22 20 20 15 9 10 12 10 10 9 6 7 11 16 19 22 27 30 32 32 32 31 27 26 24 21 19 16 17 20 22 19 14 9 8 8 9 12 13 11 11 12 14 21 22 18 14 12 10 7 5 6 7 8 6 2 2 1 7 11 13
21 21 21 21 21 21 22 22 22 21 20 20 19 19 19 20 21 22 23 23 24 25 25 26 25 24 24 22 22 21 12 9 11 10 9 11 10 8 8 9 13 18 22 24 26 29 32 33 31 28 28 23 20 20 17 19 23 23 19 12 12 13 11 10 11 13 13 12 17 19 20 21 20 17 15 13 9 7 7 7 8 8 5 2 1 5 10 14
21 21 21 21 21 22 22 22 22 22 22 21 21 20 20 20 20 21 22 22 23 24 25 26 25 26 24 23 24 17 8 9 9 8 10 10 9 9 10 11 12 16 20 24 27 30 32 31 28 27 27 23 22 21 20 23 25 22 19 17 19 18 18 16 15 15 14 16 21 24 23 22 23 21 19 16 11 9 9 8 7 9 6 3 2 3 9 14
22 22 22 21 21 21 21 22 22 22 22 22 22 22 21 21 20 20 20 20 22 23 24 25 26 26 24 25 23 11 6 11 11 11 13 13 11 10 11 12 13 15 19 24 27 30 30 28 27 27 28 26 24 23 23 25 25 22 20 21 22 23 24 22 19 17 16 18 21 23 24 24 26 24 21 17 13 11 11 10 8 9 9 5 4 4 9 14
24 23 23 23 22 22 21 21 22 22 22 21 22 22 23 23 22 20 19 20 21 22 24 24 25 25 26 25 16 4 7 15 15 14 16 15 14 13 13 13 13 15 17 21 25 28 29 28 29 31 30 27 25 23 23 25 23 21 19 23 25 25 29 28 23 19 19 20 20 20 22 27 32 27 20 18 15 12 12 13 11 11 11 8 7 7 9 14
25 25 24 24 24 23 23 22 21 21 21 21 21 22 23 23 23 21 20 20 21 22 23 24 25 25 26 19 6 6 11 17 21 20 20 19 16 17 18 17 16 15 17 20 23 26 28 30 31 33 31 29 28 23 20 21 22 22 20 22 23 26 32 30 26 23 22 22 20 22 25 32 33 25 20 20 18 16 15 16 15 14 14 11 9 8 10 14
26 26 25 25 25 25 25 23 22 21 20 21 22 23 23 23 23 22 22 21 21 21 22 24 23 24 24 11 4 14 17 20 24 23 22 22 19 18 21 21 20 18 18 20 22 24 28 30 31 33 33 32 29 24 21 20 19 20 21 22 22 26 31 28 25 26 24 22 21 25 30 34 32 26 24 23 22 20 18 18 19 17 16 13 9 9 10 13
26 26 26 26 26 26 26 25 24 23 22 22 22 24 24 23 23 23 23 22 22 22 22 23 22 24 22 10 8 18 21 22 20 17 19 21 19 19 19 19 20 19 17 19 21 22 25 28 32 34 34 32 28 26 24 22 22 21 21 24 24 26 31 27 23 24 24 22 21 27 33 35 34 30 27 26 24 22 20 19 20 20 18 14 10 9 10 12
27 27 26 26 27 27 27 27 26 24 24 24 24 24 24 23 23 23 24 24 24 23 23 23 21 23 21 10 11 20 23 21 16 16 19 18 17 16 15 15 16 17 17 16 18 20 21 25 31 33 32 32 31 28 24 26 28 26 25 27 26 26 31 28 19 18 20 20 22 30 35 36 35 32 29 27 24 21 21 20 20 21 18 16 11 8 11 13
27 27 27 27 27 27 27 27 27 26 26 26 26 25 25 24 24 24 24 25 25 25 24 24 22 23 19 11 11 15 19 22 20 21 21 18 15 14 16 17 16 17 16 14 18 21 20 23 28 31 34 35 34 28 25 30 33 31 28 28 29 27 29 29 21 15 16 18 25 31 36 37 35 33 30 28 24 23 23 21 21 21 19 18 13 9 10 13
27 27 27 27 26 26 27 27 27 26 26 28 28 26 26 26 25 25 26 26 26 26 26 25 23 23 17 10 11 14 17 22 25 25 23 21 18 17 18 17 17 18 17 16 21 24 23 23 25 29 34 37 37 34 34 35 34 32 29 27 30 29 29 30 27 18 14 16 25 32 37 39 38 36 32 27 25 25 24 22 22 22 20 20 16 11 10 13
28 27 27 27 26 26 26 27 27 26 26 28 29 28 27 27 27 27 28 28 27 26 25 24 23 22 15 8 10 16 19 20 23 25 24 22 20 21 20 18 19 20 20 21 24 27 26 24 27 33 38 42 42 40 40 38 32 30 27 26 28 29 31 31 27 21 14 16 26 34 37 38 39 38 33 28 27 27 24 23 25 24 22 22 18 12 10 13
28 27 27 27 26 27 26 26 27 26 26 27 28 28 28 28 28 29 29 28 27 27 26 25 26 24 19 13 12 16 18 20 23 24 25 24 22 23 24 23 22 22 24 25 24 26 27 29 36 42 44 45 43 40 37 35 33 31 28 27 28 30 32 30 28 23 14 15 25 34 36 38 40 39 35 30 28 28 26 27 29 27 24 24 20 14 11 12
26 27 27 26 25 26 27 27 26 26 27 27 27 27 28 29 29 31 31 28 25 27 28 26 27 28 22 16 18 20 18 21 25 23 25 27 25 25 27 28 28 28 28 26 24 24 27 36 44 44 44 44 42 39 35 33 35 34 32 31 31 32 33 31 28 22 14 15 23 33 39 40 41 40 36 32 31 29 26 26 27 26 25 25 22 17 12 11
26 26 25 25 24 24 26 27 26 27 27 27 27 27 28 29 29 31 34 31 24 23 26 25 26 28 21 15 19 23 23 25 24 24 26 28 30 30 30 32 34 33 29 27 26 27 31 41 45 42 43 43 40 38 34 33 35 35 35 34 34 34 33 32 29 22 17 17 19 26 37 43 43 41 37 34 33 29 23 21 20 20 21 23 23 19 14 14
28 27 26 25 23 22 24 26 25 27 27 26 26 26 27 27 27 28 32 36 30 23 24 25 26 28 24 17 19 25 29 29 25 25 29 31 31 31 31 34 36 34 32 32 33 34 36 39 42 42 43 43 42 39 35 33 34 37 37 35 37 38 32 30 28 21 17 16 14 17 27 37 39 38 38 36 33 29 24 21 21 21 20 18 18 16 14 17
30 30 28 26 23 20 22 24 24 25 26 25 24 24 25 25 25 26 28 35 38 30 23 23 25 27 24 19 21 26 29 29 28 28 31 33 32 31 33 34 36 37 37 36 36 39 39 35 36 42 44 43 42 41 37 33 34 39 40 39 41 40 36 34 31 25 22 20 16 16 20 31 35 36 39 37 34 33 30 27 28 28 26 21 19 17 15 17
33 32 31 28 26 21 20 23 23 23 24 22 22 21 21 21 21 24 26 29 37 35 25 23 24 24 22 22 25 26 26 30 31 29 32 34 32 31 32 32 36 40 39 38 36 38 41 36 31 35 42 44 42 42 40 35 35 40 43 45 44 41 38 36 33 28 26 25 19 14 12 21 31 37 40 38 38 38 35 33 32 30 29 28 26 24 20 18
35 35 33 31 29 24 19 21 21 23 23 20 21 20 18 18 17 21 24 25 32 33 22 17 17 17 20 24 28 26 26 31 29 29 34 35 33 30 30 32 36 36 37 37 36 37 39 37 32 31 38 44 43 43 43 37 33 39 45 46 43 39 38 38 35 27 22 24 22 15 10 12 22 34 40 41 41 39 37 37 35 32 31 30 29 27 25 22
38 37 36 33 32 29 22 20 21 22 22 19 20 20 17 16 13 16 19 16 19 22 15 10 10 13 16 19 26 28 26 25 24 32 38 36 34 33 31 33 34 33 32 33 36 39 36 34 33 30 32 40 46 46 44 39 35 42 46 43 40 37 36 38 35 29 28 33 32 26 20 16 19 28 36 42 44 42 42 39 37 36 34 31 30 28 27 25
38 39 38 34 33 33 28 25 25 22 20 19 18 19 17 14 11 11 9 5 5 7 7 6 8 12 13 15 23 30 27 19 17 28 38 37 35 35 34 35 34 31 31 34 39 39 34 32 33 32 31 37 46 49 44 40 41 46 44 39 39 36 34 35 30 27 31 31 32 37 31 17 18 26 31 40 48 48 46 43 38 37 34 32 32 30 29 28
39 39 40 36 33 33 31 29 30 24 18 18 17 17 16 12 9 6 2 3 4 5 6 5 7 10 11 14 18 25 30 22 13 19 34 39 37 38 37 35 33 30 30 34 38 35 31 29 28 30 35 37 41 44 43 43 45 46 39 36 37 33 31 31 25 27 29 22 26 40 35 17 15 28 31 39 51 53 48 43 39 37 33 32 32 31 30 29
38 38 39 38 34 33 30 28 33 29 18 16 17 16 14 11 11 7 5 7 6 5 8 8 10 10 8 13 16 20 28 26 14 13 29 38 37 38 37 33 33 32 30 32 34 35 31 25 22 26 31 34 35 36 37 40 42 41 37 35 35 34 32 28 25 26 20 16 27 39 39 23 13 26 34 36 44 50 49 45 41 39 36 34 34 32 31 31
37 36 37 38 36 36 33 27 30 30 20 16 17 15 12 12 14 9 6 11 9 6 9 9 11 13 10 12 15 16 23 28 19 15 30 40 40 42 38 33 34 32 30 35 36 36 35 27 23 24 24 26 31 33 32 32 33 34 36 36 31 30 31 27 27 24 11 11 25 34 37 29 18 26 35 32 34 40 46 47 42 38 36 34 34 34 33 32
37 35 35 35 35 37 36 30 27 26 21 15 15 15 13 12 17 18 11 8 7 9 13 11 10 13 12 13 16 15 19 27 24 18 28 40 43 47 44 40 41 34 30 40 40 34 38 38 31 25 23 22 27 32 32 31 33 34 37 35 23 14 15 16 14 12 9 12 20 25 27 26 28 36 38 33 32 35 41 45 41 36 34 31 31 32 34 33
37 36 33 32 34 36 35 32 26 23 19 15 14 16 16 11 13 25 23 13 7 8 13 13 11 12 11 12 15 15 17 25 28 21 22 36 44 47 47 44 42 37 32 36 36 31 31 36 38 34 30 26 29 34 36 37 37 38 41 38 25 9 4 8 6 4 10 15 18 24 23 20 29 40 39 36 34 32 35 39 38 36 35 34 33 32 33 33
36 36 33 29 32 36 33 29 25 20 16 15 16 17 21 17 10 14 18 20 20 17 15 15 13 12 10 8 8 12 16 21 28 25 21 34 47 47 48 46 41 39 34 26 28 32 25 24 35 41 38 34 34 37 37 35 36 39 41 39 33 23 11 5 5 4 6 10 13 18 16 13 23 35 38 35 31 28 30 32 33 34 34 35 37 37 35 33
35 35 33 28 30 34 30 25 23 19 14 15 19 21 27 27 16 8 10 18 26 28 26 23 19 16 14 10 6 8 15 17 22 26 24 32 45 47 47 49 44 40 37 26 23 31 30 29 33 34 36 37 36 37 35 32 33 35 37 37 40 42 30 12 9 11 8 8 10 16 17 18 25 33 35 33 30 27 26 29 32 33 33 35 41 44 40 36
36 32 30 28 28 29 27 23 19 18 16 17 22 29 35 31 21 14 11 14 21 26 27 27 24 19 16 16 14 13 16 14 12 19 25 29 37 42 44 46 45 44 43 37 28 24 26 34 36 27 29 36 36 37 37 35 33 29 33 42 43 43 39 24 17 19 14 7 8 15 20 25 27 28 29 29 30 29 25 27 31 32 32 35 41 44 42 39
37 32 28 26 25 24 25 23 19 18 18 21 27 33 35 32 27 22 14 11 16 18 18 18 16 12 10 13 17 16 14 13 11 12 18 21 22 30 39 42 42 44 45 43 39 32 25 29 35 28 27 33 34 35 35 36 35 30 32 41 40 34 36 31 18 14 12 6 6 12 18 22 21 20 24 27 28 30 28 26 27 29 33 37 40 41 41 40
37 32 27 23 21 20 23 23 20 20 21 24 31 33 31 31 30 27 22 19 18 16 15 15 11 8 7 9 13 15 11 9 10 7 9 14 10 15 32 39 38 41 45 44 44 43 34 27 32 32 28 27 29 34 35 35 36 37 35 34 31 25 28 31 19 8 8 6 5 7 13 23 28 23 21 24 26 28 28 26 25 25 30 37 38 38 40 41
36 31 23 18 20 20 21 21 20 21 24 27 31 31 28 28 27 26 28 29 27 24 20 17 13 11 11 11 13 15 14 11 10 5 6 11 7 9 22 31 32 37 43 45 46 45 38 29 30 35 30 25 26 34 41 40 36 38 39 37 35 32 31 34 27 13 7 4 6 5 6 21 36 33 26 23 23 24 25 25 25 24 27 31 32 32 33 35
34 29 19 16 23 21 20 20 18 20 25 29 30 28 25 25 24 23 26 29 29 28 24 20 18 16 17 19 18 20 20 18 16 9 5 7 7 8 14 20 25 31 37 42 44 43 39 33 31 34 30 27 30 34 39 45 43 41 42 42 41 37 33 32 31 29 20 7 3 3 6 23 36 34 31 29 24 24 25 24 25 25 26 26 26 25 25 27
30 27 17 17 24 22 20 20 18 19 23 26 28 27 25 24 23 21 20 22 25 25 23 23 22 22 22 22 21 22 23 22 20 13 7 9 11 9 8 9 13 21 27 32 35 35 33 32 36 38 34 31 33 34 33 39 46 47 45 46 44 38 31 19 16 29 34 22 13 8 9 26 34 29 29 30 27 28 29 28 28 28 26 25 24 23 22 24
28 25 17 17 23 19 19 19 15 16 19 20 24 26 25 21 17 14 15 17 19 18 17 17 18 20 20 18 17 18 19 18 17 13 8 11 15 13 8 4 4 8 13 16 21 28 30 31 34 41 43 38 35 35 34 33 39 46 47 47 45 41 36 24 13 22 31 30 26 17 12 24 34 31 25 23 25 28 29 31 32 31 27 25 25 25 25 27
27 24 15 14 18 15 15 16 14 15 13 13 18 21 21 18 13 13 15 16 15 13 11 11 13 15 16 15 14 15 15 13 12 12 11 13 18 19 15 10 7 6 6 8 12 22 29 27 21 25 35 41 39 39 39 35 34 40 47 49 47 44 43 38 32 31 28 25 22 13 9 17 24 28 25 20 21 24 25 29 31 31 31 29 27 25 26 29
27 23 14 12 16 14 11 9 9 10 9 9 12 14 18 18 12 11 14 13 10 10 11 10 10 11 13 14 13 13 14 12 11 12 13 15 18 20 20 16 12 8 4 3 6 12 17 15 11 11 16 24 29 29 34 39 37 36 41 47 48 48 46 43 42 36 27 27 27 15 11 14 15 21 26 23 23 23 21 24 27 29 31 30 27 22 19 23
25 22 16 13 14 11 8 4 5 7 8 8 7 8 14 19 15 12 13 12 9 10 11 11 10 10 11 14 15 15 15 14 13 13 15 16 18 21 22 18 14 11 5 4 7 11 15 13 12 12 9 9 12 12 16 29 37 37 37 40 45 50 49 46 43 35 23 26 33 28 20 16 15 23 27 21 21 22 19 21 25 28 31 31 27 23 18 19
23 20 18 17 13 4 7 4 6 8 10 10 6 4 6 12 13 11 12 13 11 13 15 13 11 12 12 14 17 17 17 16 15 16 17 20 21 22 25 22 17 15 11 9 12 15 18 17 14 15 15 14 15 15 13 18 31 41 42 39 40 46 53 51 44 39 30 26 33 39 34 22 17 24 26 20 19 24 25 25 26 27 30 32 29 25 22 21
19 18 18 19 13 3 4 5 6 7 10 12 10 8 7 4 4 5 8 10 9 14 17 12 9 9 10 11 13 14 15 16 17 17 18 21 24 25 27 27 24 21 18 15 15 16 19 17 14 17 20 20 20 21 20 20 27 37 43 44 41 41 49 54 51 47 41 29 29 39 38 28 22 23 26 26 26 28 29 27 24 21 23 28 28 27 28 28
17 16 14 15 13 9 9 9 9 10 11 11 10 10 9 8 6 4 5 6 6 10 14 11 8 9 8 9 10 11 15 18 19 19 19 22 25 27 28 28 26 25 23 18 15 17 20 18 15 18 24 26 23 21 22 25 29 33 36 43 47 43 44 52 55 54 51 42 39 42 41 36 32 28 28 27 26 27 25 21 19 19 18 21 23 24 27 31
16 15 13 11 12 13 12 12 12 12 11 10 10 8 8 8 7 5 7 9 8 8 10 11 12 13 11 10 11 13 17 20 20 21 22 24 27 29 30 29 27 26 25 20 18 17 19 17 15 19 26 29 25 21 20 23 28 33 35 38 44 48 48 50 52 53 55 55 53 51 47 46 46 42 38 32 27 26 24 20 20 22 22 21 21 22 24 28
16 15 14 14 15 13 11 11 12 12 11 11 10 8 6 7 8 8 9 12 12 10 10 13 15 16 15 14 13 15 18 20 22 25 26 26 28 29 29 27 26 27 26 24 22 20 21 21 18 21 27 26 22 19 19 19 22 29 37 38 40 47 51 52 51 51 52 54 54 53 50 50 51 50 48 44 38 32 28 24 24 25 24 23 22 23 22 22
16 14 13 15 17 14 12 11 12 13 12 10 9 9 8 6 8 9 10 10 11 12 13 15 17 19 21 20 18 18 19 21 25 28 27 27 28 29 28 28 29 31 31 29 27 24 23 24 21 21 27 25 18 12 15 22 24 28 38 44 42 44 50 52 51 49 49 50 52 53 53 53 51 47 47 47 42 37 34 31 28 27 25 21 20 20 20 19
15 13 12 14 16 15 14 14 13 13 12 10 9 10 10 8 8 9 8 8 9 10 12 14 16 18 21 23 22 21 21 23 26 28 28 29 29 30 30 31 31 33 33 31 30 29 25 24 22 19 23 23 15 10 15 18 18 27 46 55 49 43 44 47 47 47 48 49 52 55 57 56 50 45 46 45 39 36 38 39 35 31 27 21 17 16 17 17
Wind_Direction
305 302 298 296 293 291 289 287 285 284 283 283 283 284 284 285 286 286 286 286 287 288 290 291 292 294 295 295 296 291 284 279 277 277 275 259 241 235 228 224 221 219 217 216 216 215 214 215 215 220 232 239 241 252 240 233 244 252 280 299 298 17 33 66 121 158 187 188 183 191 201 202 211 216 199 209 218 227 259 249 216 189 186 183 183 207 207 190
311 308 304 300 297 295 292 290 288 285 284 282 281 281 281 281 282 283 284 284 283 285 287 288 289 289 291 295 296 292 289 284 281 281 281 264 245 236 225 224 224 220 217 215 215 217 221 224 222 226 236 237 228 230 228 224 237 258 287 282 229 142 73 115 156 148 170 191 190 201 217 220 238 274 230 218 230 243 268 257 236 209 194 197 190 194 203 198
314 313 311 307 304 301 298 295 292 289 287 284 282 280 279 278 278 279 280 280 281 281 283 286 286 286 287 290 293 293 291 291 292 289 282 271 249 234 222 221 225 224 220 214 211 212 214 220 223 226 231 227 214 217 225 222 229 250 262 248 185 149 145 136 170 156 153 195 202 213 220 222 238 267 256 239 250 271 295 288 258 229 210 215 207 195 199 203
314 313 312 311 309 307 304 301 297 294 291 288 285 282 280 277 276 275 275 276 277 278 280 282 283 284 284 285 288 289 291 298 306 295 281 279 252 230 220 219 223 223 218 209 203 200 196 198 209 217 222 220 210 213 227 225 227 237 227 192 146 186 170 143 165 169 175 208 212 220 216 218 232 255 256 258 282 310 330 358 56 340 233 234 227 207 198 203
315 313 311 310 310 309 308 305 302 299 296 293 289 286 283 280 277 275 273 273 273 275 276 278 280 281 281 282 282 284 290 299 318 315 285 287 259 231 223 223 219 213 210 203 197 193 191 193 198 205 213 215 211 215 227 225 228 227 195 160 154 190 181 160 159 168 199 238 221 221 216 221 231 247 257 270 338 351 352 3 48 38 303 247 240 220 202 200
314 313 311 310 309 308 307 306 305 302 299 296 292 289 286 283 280 277 274 272 271 272 272 274 275 277 278 278 277 280 281 283 318 303 264 260 262 232 221 217 203 198 202 199 196 194 192 193 197 202 209 211 212 219 224 221 230 221 185 166 154 169 192 175 167 166 207 279 250 230 220 226 238 248 262 276 333 324 316 323 325 19 29 47 235 225 208 201
312 311 310 309 308 307 306 304 304 303 301 298 295 292 288 285 282 279 276 274 272 271 270 271 271 273 275 274 274 274 272 274 277 262 249 246 252 231 208 196 184 186 196 198 198 197 193 194 200 204 209 211 215 220 219 219 231 224 195 179 170 201 210 183 179 178 210 274 280 252 226 223 237 249 258 267 295 296 296 291 269 284 15 21 220 217 213 206
310 309 308 307 306 306 305 305 304 303 302 300 298 294 291 287 284 281 278 276 273 271 270 269 268 269 271 271 272 269 270 279 264 252 249 243 231 222 206 187 183 185 192 198 202 202 197 197 201 203 210 214 218 222 217 221 231 225 203 185 199 237 231 201 202 196 203 252 271 256 236 232 242 253 258 267 278 270 275 271 261 260 278 336 219 206 211 206
309 308 307 305 305 304 304 304 304 303 302 301 299 297 294 290 286 283 281 279 276 273 270 268 267 267 268 269 269 269 271 273 260 242 241 238 217 214 213 195 196 193 193 198 204 209 204 201 202 204 213 214 216 220 216 221 229 226 216 219 243 258 263 250 236 217 204 237 261 257 252 248 244 245 248 252 258 245 247 257 256 257 261 294 233 206 211 207
307 306 305 304 303 302 302 302 302 302 303 302 301 299 296 292 289 285 283 282 279 275 273 270 268 266 266 266 267 269 260 248 240 206 205 215 207 211 211 204 208 203 202 201 202 209 206 203 203 205 213 211 212 217 212 219 228 232 239 254 263 273 284 276 262 249 236 243 255 261 263 251 238 237 238 242 242 229 231 244 252 257 256 256 263 225 210 206
305 305 304 303 302 301 300 300 299 299 300 302 301 300 297 293 289 287 287 284 280 277 274 272 270 268 266 264 264 264 229 217 208 197 196 195 197 202 205 206 209 207 210 209 206 207 205 203 202 205 211 210 211 214 214 221 229 237 251 265 268 277 284 279 269 265 266 250 235 252 263 243 233 237 240 247 246 230 229 237 249 256 248 239 253 236 212 206
304 303 301 300 299 298 298 297 297 296 298 299 298 297 294 292 289 289 289 285 280 277 276 275 273 271 268 267 265 253 222 210 200 203 202 200 197 193 194 195 199 203 208 215 214 211 206 203 204 208 210 209 211 214 220 224 230 240 255 269 271 276 277 271 268 266 274 263 227 239 254 231 228 236 239 244 244 238 236 233 238 247 243 239 240 228 215 209
303 302 300 298 297 296 295 294 293 293 295 295 293 291 289 290 291 291 289 284 281 279 278 276 275 273 271 275 259 193 210 206 207 212 208 209 209 208 206 194 189 193 200 209 214 215 212 207 207 209 209 212 213 214 220 219 228 238 245 259 268 272 267 260 264 264 267 266 239 236 237 223 226 235 236 235 233 236 239 230 227 235 238 237 238 226 214 212
298 299 299 297 295 294 292 291 291 291 291 289 288 286 285 287 289 290 288 284 283 281 279 277 277 276 275 283 200 201 205 206 212 213 213 216 216 220 216 202 193 190 194 197 200 210 214 211 211 212 212 215 215 216 221 218 221 230 238 246 252 262 258 250 257 260 260 261 248 238 232 223 224 231 232 229 229 237 243 234 222 227 233 233 234 225 217 218
293 293 294 295 294 293 291 290 289 289 288 286 284 283 283 285 286 286 285 284 283 281 279 276 277 277 278 283 223 212 208 213 218 212 215 220 217 217 214 207 201 190 185 186 188 197 207 212 214 215 214 214 217 222 228 232 228 230 245 245 240 251 255 251 249 250 260 265 247 233 228 224 225 230 230 226 230 237 243 237 222 223 229 228 229 223 219 220
293 292 291 291 291 292 291 290 288 287 287 284 282 282 281 282 282 282 282 283 281 279 278 277 276 276 278 278 240 224 215 218 221 215 218 222 215 207 203 202 201 188 177 179 184 187 198 211 215 217 217 215 218 223 234 250 244 234 245 248 240 245 253 255 245 243 268 269 240 225 223 223 224 228 227 226 231 234 236 235 223 223 227 227 228 220 219 221
298 295 293 291 290 290 290 289 288 287 286 283 282 282 281 281 281 280 280 279 278 278 277 277 276 274 274 271 248 232 220 215 214 215 218 219 206 194 200 197 193 187 170 170 186 187 192 207 213 217 218 217 218 222 237 250 244 233 238 244 242 243 249 253 248 255 284 265 234 223 222 226 230 228 225 226 230 230 232 232 223 223 227 228 228 223 223 228
302 300 298 295 293 291 290 288 288 287 285 282 280 280 281 281 280 279 277 275 275 275 276 276 274 272 270 260 239 223 216 215 214 213 213 214 201 192 203 200 192 188 172 174 192 192 193 204 212 216 218 218 215 217 228 234 234 233 234 239 241 243 247 249 250 263 295 271 234 221 221 228 234 232 229 229 229 230 233 232 224 224 229 229 229 232 234 234
303 302 301 299 298 296 293 290 289 287 285 282 281 279 279 279 279 277 275 273 274 275 275 274 270 267 264 259 240 223 219 219 216 213 211 210 202 194 200 202 197 193 189 190 194 196 197 203 212 215 215 214 213 216 225 230 233 237 240 244 244 247 247 246 250 259 290 280 238 225 226 228 230 229 231 233 229 230 233 229 223 223 228 231 232 236 238 237
303 302 301 301 300 299 297 293 292 289 287 284 282 282 281 280 280 278 274 273 277 277 272 270 271 267 260 257 252 241 232 226 221 215 210 208 203 197 197 202 202 199 204 200 196 199 202 210 216 214 212 211 213 217 225 232 236 241 246 248 247 250 248 244 250 256 274 279 246 235 234 232 228 227 232 234 227 226 228 225 223 223 228 231 233 236 238 239
305 303 301 300 300 301 298 295 293 291 288 286 284 283 282 281 282 280 278 274 273 274 272 268 269 264 255 246 240 242 236 227 225 217 212 208 201 200 199 202 204 205 208 204 200 204 210 219 219 215 213 212 214 218 225 232 235 241 246 248 249 250 246 243 249 252 252 270 255 235 228 228 229 228 230 231 226 225 227 227 225 226 231 232 235 240 237 232
311 308 305 303 302 301 298 295 293 290 288 287 286 285 284 283 283 285 285 278 262 261 269 268 267 264 257 241 229 231 229 227 225 214 213 210 202 203 202 203 207 208 208 205 205 210 220 227 223 217 216 215 216 219 225 231 235 239 243 249 251 246 245 247 249 247 249 268 264 235 223 223 227 229 229 229 230 232 234 238 237 232 235 235 236 240 231 221
314 312 310 308 307 305 299 294 291 289 287 287 287 287 287 287 288 289 290 286 272 258 261 262 263 264 259 247 227 224 228 230 224 209 209 212 208 205 204 206 209 209 210 210 209 211 220 229 225 219 217 217 219 220 223 230 235 236 238 246 247 242 247 251 246 246 255 266 270 256 238 228 227 227 227 231 236 238 238 241 242 240 245 249 248 243 227 219
311 310 309 309 309 310 305 296 291 288 285 285 286 287 287 287 291 291 289 290 282 272 269 266 261 259 257 251 233 226 230 234 226 210 209 213 210 206 206 209 210 210 214 216 215 216 219 225 224 219 218 218 220 220 222 228 233 233 234 240 242 241 246 250 249 253 263 266 268 277 256 233 229 224 223 229 233 232 233 234 234 236 241 250 252 246 231 219
308 307 306 306 305 306 308 301 293 287 284 285 285 283 282 283 290 291 292 295 287 280 282 277 266 258 249 240 235 228 225 232 228 211 210 215 212 208 207 209 212 215 217 218 220 224 225 226 226 222 218 218 221 221 220 223 232 234 231 232 237 241 245 249 255 262 271 272 264 270 254 226 226 226 225 226 226 225 226 230 233 234 235 238 241 240 234 222
306 304 303 303 301 298 303 304 295 287 285 284 281 277 275 280 287 291 298 304 292 287 290 281 264 254 241 230 232 226 219 233 231 209 209 216 213 211 207 205 212 219 220 217 220 230 231 228 228 225 220 219 220 223 220 218 231 236 230 229 235 243 247 250 256 262 270 269 263 263 258 234 222 223 227 226 224 225 225 228 233 234 234 236 238 237 234 228
305 303 301 302 300 295 294 297 294 287 284 279 274 272 270 272 282 291 301 309 297 290 290 272 246 241 235 224 224 219 217 233 227 209 212 214 210 211 208 205 209 216 218 214 219 230 231 225 224 223 221 221 221 223 220 216 226 235 231 230 235 242 246 249 256 260 263 266 269 268 261 255 236 228 231 228 223 223 224 227 231 231 233 238 240 238 234 232
305 303 301 300 300 297 293 293 290 285 283 279 271 268 266 261 269 285 292 299 298 292 283 251 226 232 230 217 217 216 217 227 219 212 214 213 210 210 209 209 211 213 211 209 218 228 229 223 221 218 218 222 223 223 221 215 223 232 232 234 238 240 245 251 258 265 266 266 268 266 260 254 251 247 239 227 222 222 224 228 231 231 234 237 239 240 236 234
305 303 301 299 298 296 295 293 288 282 282 280 272 266 260 249 248 255 241 240 252 258 268 250 223 236 234 220 216 213 215 218 217 211 208 209 211 211 212 212 213 217 215 215 224 231 233 232 229 223 222 224 224 223 222 219 224 230 234 238 241 243 248 254 261 266 266 258 252 260 257 241 248 255 238 217 217 221 225 230 233 235 239 241 241 242 240 237
304 304 301 299 297 292 289 288 285 284 285 282 275 265 253 237 224 213 202 227 231 229 247 237 218 228 235 226 220 213 212 212 214 205 203 209 211 210 214 213 211 220 222 224 232 235 237 243 241 234 232 232 227 223 221 222 228 232 235 239 244 249 251 257 264 263 261 247 243 252 254 244 246 253 240 224 225 229 228 230 233 236 239 242 244 244 243 240
304 303 301 300 298 291 284 282 282 286 291 283 274 262 245 223 207 200 216 231 228 219 226 219 209 217 224 224 221 216 211 208 207 196 196 204 205 203 208 208 207 216 224 227 234 235 234 236 236 237 242 240 233 225 219 220 226 230 232 236 243 250 252 257 261 253 243 246 246 250 253 247 238 245 245 243 245 241 235 234 235 237 238 240 245 245 244 243
305 303 302 301 298 291 286 284 281 284 288 279 268 255 231 207 209 215 212 211 230 232 222 210 195 202 212 221 221 219 212 206 204 199 199 203 203 203 207 206 203 204 214 223 227 230 231 231 231 235 240 237 231 227 221 219 224 227 228 228 229 241 246 247 252 245 240 252 252 252 253 245 242 251 252 251 254 248 240 240 242 243 244 246 249 249 245 242
307 304 303 301 295 290 287 287 285 282 281 271 257 240 215 197 223 228 216 203 221 229 214 208 196 191 206 229 229 226 223 213 205 203 208 208 207 208 211 210 207 204 210 219 220 223 230 234 233 233 234 229 226 225 220 218 221 223 224 221 214 209 213 224 232 251 257 255 251 252 251 244 248 256 254 250 255 256 247 245 246 248 252 256 258 257 249 243
309 306 305 302 292 288 287 287 285 279 274 258 241 223 207 210 230 233 223 218 230 240 231 225 219 207 215 235 234 236 238 225 212 209 209 207 206 207 209 209 208 210 215 219 217 217 222 232 232 229 227 222 221 224 223 221 221 222 225 223 220 220 215 210 217 218 257 263 246 236 236 235 244 253 254 250 254 257 253 250 248 250 255 259 258 256 251 245
311 309 308 301 289 286 287 286 283 274 261 242 232 215 211 219 220 220 228 221 229 244 245 244 247 240 235 231 219 230 233 227 220 217 213 208 207 208 210 210 209 210 215 220 222 219 221 232 234 229 226 221 219 224 226 225 227 227 226 225 225 227 226 233 255 249 258 279 245 219 225 241 251 258 259 255 253 253 251 250 246 246 252 255 252 249 247 246
313 312 309 299 288 285 285 281 275 267 252 233 227 222 221 225 221 218 230 223 230 246 250 250 256 257 252 241 228 225 225 217 210 217 219 217 215 215 215 215 214 213 215 219 222 218 220 236 242 233 227 224 218 220 224 222 225 226 223 224 227 230 231 235 255 260 259 276 251 223 232 245 253 261 258 252 252 248 245 249 245 243 249 251 249 247 245 244
314 315 311 301 288 280 275 269 261 255 247 230 226 231 232 231 226 223 230 234 233 246 260 261 257 255 255 241 225 218 222 212 196 208 218 216 219 222 221 221 223 223 223 224 227 227 226 242 248 239 233 233 222 219 226 227 226 225 223 227 229 232 234 232 239 257 248 253 255 226 233 243 240 247 249 243 244 244 242 247 248 246 247 247 248 248 246 245
317 320 319 307 287 269 258 256 250 242 238 232 230 234 238 238 235 230 232 244 245 247 266 275 267 254 249 248 231 222 227 219 206 206 192 188 192 210 215 219 222 223 226 228 231 232 233 244 253 246 241 242 228 220 225 229 230 230 231 233 227 219 222 222 220 235 227 234 275 233 231 245 239 235 237 234 236 241 241 244 247 246 245 246 248 250 249 248
319 325 326 300 274 257 244 245 245 236 232 233 234 236 241 244 245 239 235 244 254 257 264 269 265 253 244 251 256 252 254 251 245 245 164 177 189 192 204 211 211 212 219 223 226 231 232 237 250 250 247 247 233 220 220 222 224 229 233 237 234 227 223 219 217 222 218 218 261 247 232 247 244 240 237 235 235 238 237 238 243 244 242 245 249 252 252 250
322 327 328 285 265 255 241 238 239 235 233 235 235 239 245 249 251 247 240 244 254 259 261 260 255 257 258 259 264 271 270 266 268 266 197 195 219 211 210 211 207 208 214 218 222 228 231 232 241 249 247 237 227 219 219 219 218 219 223 226 228 229 227 224 223 225 225 219 212 216 251 250 248 245 241 239 237 237 237 237 241 247 248 247 248 252 255 254
325 330 329 288 272 262 244 240 242 241 241 240 238 241 249 255 258 257 249 247 251 254 256 257 257 262 269 266 262 270 272 268 271 273 246 234 234 222 211 210 215 217 216 218 218 222 230 231 234 241 239 227 226 230 228 224 221 219 220 221 222 222 216 212 223 224 223 227 224 211 252 258 255 251 246 243 240 240 241 239 239 246 251 249 246 249 255 255
326 330 328 295 284 271 247 242 241 239 243 245 242 242 246 253 261 259 248 244 246 250 253 254 253 255 260 261 257 263 271 271 272 271 246 231 237 236 220 204 246 235 224 224 213 210 221 228 233 240 239 233 237 243 240 235 230 226 225 225 225 222 216 208 214 221 219 226 232 231 252 261 259 258 254 248 243 242 243 241 240 242 246 250 252 256 260 259
325 331 330 302 300 290 252 237 228 223 232 240 236 235 237 238 245 245 242 244 245 246 245 238 238 242 247 256 258 260 270 276 271 259 234 223 237 247 242 239 258 255 244 245 216 207 217 225 238 252 249 245 245 244 241 239 238 233 230 229 227 225 223 222 228 230 224 224 226 226 247 254 257 260 258 252 249 248 247 241 238 239 241 249 258 263 267 265
325 329 326 312 316 305 265 245 241 238 256 259 236 228 228 226 232 241 241 245 246 240 238 236 241 241 244 258 270 271 272 273 263 252 240 233 241 250 253 252 258 265 280 290 246 230 231 235 245 258 258 251 244 241 238 233 231 231 230 230 229 228 228 228 231 233 234 231 224 217 239 244 245 254 255 254 254 256 252 242 236 238 242 249 257 262 269 271
326 328 320 321 330 309 262 267 307 302 315 300 252 236 232 222 224 240 240 239 244 247 245 245 252 256 261 271 277 281 281 277 269 261 255 252 252 256 257 254 251 253 270 331 307 283 283 283 264 246 241 240 239 242 237 230 229 230 229 229 228 227 227 226 227 227 229 231 225 222 233 236 233 248 255 252 245 244 248 248 246 246 247 249 251 254 263 271
327 329 320 323 340 309 232 264 305 307 327 324 295 292 266 226 225 243 242 237 246 255 256 262 269 273 278 278 276 281 284 280 277 273 270 271 269 266 264 262 259 254 256 290 303 297 294 288 270 255 249 253 263 261 244 237 237 233 229 228 226 226 227 226 225 224 223 225 228 231 235 236 234 244 247 240 238 246 253 257 259 258 254 252 250 249 256 263
325 330 326 326 341 340 241 280 284 283 316 323 311 314 321 297 272 261 229 225 242 252 253 260 271 272 281 286 282 285 286 282 281 282 284 283 279 277 274 273 273 268 264 279 295 297 298 288 269 259 255 259 272 266 250 247 249 242 234 229 227 227 226 224 224 226 225 224 232 236 236 235 231 234 239 242 250 258 258 257 259 261 259 256 253 252 256 260
321 325 329 324 324 321 308 303 293 290 307 317 312 308 309 315 324 306 246 229 237 251 251 248 249 259 282 301 297 292 291 291 292 291 290 287 284 282 280 279 281 276 271 276 283 292 303 298 281 273 267 260 261 263 257 252 249 246 241 234 231 229 228 226 226 228 227 227 234 238 237 236 234 232 237 244 250 256 257 256 254 254 257 258 257 257 256 256
319 319 322 311 305 313 317 315 312 308 311 318 316 305 295 291 291 294 291 279 265 258 259 257 260 263 273 292 301 297 295 296 299 298 297 294 292 290 288 287 284 278 274 270 268 284 302 298 290 294 286 270 261 260 262 260 253 247 244 241 235 232 232 232 231 230 230 232 236 240 241 241 241 241 241 241 246 252 252 251 251 252 254 259 263 264 258 254
317 315 314 307 304 312 318 316 312 309 317 328 323 312 305 291 277 267 268 273 276 277 270 265 268 269 269 279 291 293 292 291 290 292 296 296 293 293 295 294 288 285 283 276 269 280 295 294 294 305 302 287 270 261 254 254 258 248 240 241 238 233 232 234 234 232 231 232 235 239 242 244 245 247 247 246 247 249 247 249 254 254 252 256 264 266 261 255
313 312 311 305 304 311 314 310 307 308 319 330 321 314 317 311 300 283 254 248 267 276 272 270 274 273 271 273 279 284 286 283 281 284 289 292 291 290 290 289 290 292 290 284 279 280 288 294 295 308 315 299 274 270 263 252 256 252 239 234 233 231 230 233 235 235 232 232 232 234 238 241 244 249 251 249 248 246 245 249 254 252 248 252 261 264 260 255
309 308 307 300 298 302 302 301 305 308 314 319 316 314 311 304 308 302 273 246 245 256 265 272 276 277 275 275 277 281 281 279 279 280 283 286 287 287 286 285 287 290 288 288 287 282 283 292 293 306 318 303 281 300 302 282 270 253 239 233 230 230 232 233 235 237 237 235 233 234 238 243 246 249 250 251 252 247 241 244 249 248 245 251 263 265 256 251